NIMBUS 2 DEB, 28620

Orbit data source: Space-Track

NIMBUS 2 DEB, 28620 is space debris in SSO originally from a launch on Sun, 15 May 1966 UTC launched from the Air Force Western Test Range (AFWTR). Debris objects in space refer to the collection of defunct objects orbiting the Earth. Examples of debris include non-operational satellites, rocket bodies, and fragments generated from explosions, collisions, or faulty payload assembly.

Loading next visibility...
Identifier
28620, 1966-040AK
Orbit
SSO
Country
Flag of USUS
Related business
Manufacturer
Unknown
Mission
Spacecraft
Bus & Motor
Unknown
Mass
Unknown
Launch date (UTC)
1966-05-15 (59 years ago)
Launch vehicle
Unknown
Launch site
Air Force Western Test Range (AFWTR)
Object type
Payload
Rocket body
Debris
Shape & HBR
Unknown shape, 0.1 m
Radar Cross Section
Small (<0.1 m²)

Expand to show TLE details & history
Last TLE update: 1 day ago

TLE from 1 day ago
0 NIMBUS 2 DEB
1 28620U 66040AK  25294.94898330  .00003054  00000-0  47532-2 0  9995
2 28620 100.4382 189.7184 0039427 242.5123 181.9813 13.51314461 19022
Epoch: 2025-10-21T22:46Z
TLE epoch observation values (Epoch: 2025-10-21T22:46:32.157Z)
Latitude
62.65002°
Longitude
156.70162°
Altitude
1,107.415 km
Speed
7.29 km/s
True Right ascension
11h 15m 51s
True Declination
62° 30' 58"
Sunlit
Object was in daylight at epoch
Visualization orbit readout
Latitude
Unknown
Longitude
Unknown
Altitude
Unknown
Speed
Unknown
Apparent Right ascension
Unknown
Apparent Declination
Unknown
Sunlit
N/A
Visualization observer readout
Local Sidereal Time
19:02:55
Azimuth
Unknown
Elevation
Unknown
Doppler factor
Unknown
Orbital elements
Apogee altitude
1,094.11 km
Perigee altitude
1,035.42 km
Semi-major axis
7,442.902 km
Eccentricity
0.00394
Inclination
100.4382°
RAAN
189.7184°
Arg. of periapsis
242.5123°
True anomaly
181.96576°
Mean anomaly
181.9813°
Eccentric anomaly
181.97352°
Mean motion
3.3801 °/min
Orbital period
106.51 mins
BSTAR
0.0047532
Loading maneuver chart data...
Computing Atmospheric mass density...
Loading historical data...
Loading historical data...
Loading historical data...
Loading historical data...
Loading historical data...
Loading historical data...
Loading historical data...

Documentation

Showing up to 5 results
|